[[{"header":{"parameterUnit":"m.s-1","parameterCategory":1,"la1":30.2991,"la2":30.254,"lo1":-89.0895,"lo2":-89.0444,"dy":0.0017,"dx":0.0017,"nx":28,"ny":28,"refTime":"2025-09-07T21:00:00:Z","depth":0,"parameterNumber":2,"parameterNumberName":"U-component_of_WINDS"},"data":[0,0,0,0,0,0,0,0,0,0,0,0,0,0,0,0,0,0,0,0,0,0,0,0,0,0,0,0,0,0,0,0,0,0,0,0,0,0,0,0,0,0,0,0,0,0,0,0,0,0,0,0,0,0,0,0,0,0,-5.2506,-5.2506,0,-5.2554,-5.2554,-5.2555,-5.2425,-5.2421,-5.2417,-5.2414,-5.2462,-5.2467,-5.2472,0,0,0,0,0,0,0,0,0,0,0,0,0,-5.23,-5.2305,-5.2506,-5.2506,-5.2507,-5.2554,-5.2554,-5.2555,-5.2426,-5.2421,-5.2416,-5.2412,-5.246,-5.2466,-5.2472,0,0,0,0,0,0,0,0,0,0,0,0,0,-5.2373,-5.2306,-5.2505,-5.2448,-5.2444,-5.2554,-5.2554,-5.2555,-5.2427,-5.2421,-5.2415,-5.2409,-5.2458,-5.2465,-5.2473,-5.264,0,0,-5.2496,-5.2499,0,0,0,0,0,0,0,0,-5.2369,-5.2381,-5.2456,-5.2452,-5.2447,-5.2477,-5.2499,-5.2584,-5.2429,-5.2433,-5.2413,-5.2406,-5.2472,-5.2478,-5.25,-5.2642,-5.2645,-5.2497,-5.2501,-5.2504,-5.2507,0,0,0,0,0,0,0,-5.2364,-5.2378,-5.2524,-5.2457,-5.2452,-5.2419,-5.2423,-5.2515,-5.2486,-5.2432,-5.2423,-5.2431,-5.2468,-5.2493,-5.25,-5.2645,-5.2496,-5.2503,-5.2508,-5.2511,-5.2927,-5.2933,0,0,0,0,0,0,-5.2367,-5.2375,-5.2523,-5.2526,-5.2393,-5.2428,-5.2432,-5.2474,-5.2484,-5.248,-5.2436,-5.2425,-5.2483,-5.2492,-5.2501,-5.2697,-5.2504,-5.2511,-5.2516,-5.292,-5.2928,-5.2935,0,0,0,0,0,0,-5.2363,-5.2381,-5.2521,-5.2448,-5.2463,-5.2438,-5.2486,-5.2478,-5.2503,-5.2487,-5.2481,-5.2467,-5.2479,-5.2491,-5.2607,-5.2697,-5.2515,-5.2522,-5.2913,-5.2923,-5.2932,-5.3092,0,0,0,0,0,0,-5.2358,-5.2381,-5.2445,-5.245,-5.2468,-5.2626,-5.2491,-5.2483,-5.2516,-5.2502,-5.2514,-5.2511,-5.2475,-5.2596,-5.2614,-5.2704,-5.2528,-5.2904,-5.2917,-5.2929,-5.3078,-5.3106,-5.3129,0,0,0,0,0,-5.2351,-5.2487,-5.2448,-5.2467,-5.2547,-5.2632,-5.2642,-5.2598,-5.2524,-5.2587,-5.2577,-5.251,-5.2685,-5.2609,-5.2628,-5.2722,-5.2898,-5.2914,-5.2928,-5.3067,-5.31,-5.3129,0,0,0,0,0,0,-5.2492,-5.2487,-5.2444,-5.2586,-5.2611,-5.261,-5.2688,-5.2635,-5.2681,-5.2665,-5.2609,-5.2613,-5.2739,-5.2742,-5.2658,-5.2884,-5.2779,-5.2798,-5.2878,-5.291,-5.2935,-5.2931,-5.2534,0,0,0,0,0,-5.254,-5.261,-5.2602,-5.2728,-5.2743,-5.2714,-5.275,-5.2714,-5.2737,-5.2746,-5.2744,-5.2769,-5.2828,-5.2869,-5.2924,-5.3078,-5.3079,-5.3152,-5.3178,-5.3199,-5.3216,-5.3297,-5.333,-5.2984,-5.2983,-5.2983,0,0,-5.264,-5.2646,-5.2693,-5.2757,-5.2771,-5.2845,-5.2724,-5.2806,-5.286,-5.2758,-5.2867,-5.2868,-5.2891,-5.3027,-5.3086,-5.3033,-5.3312,-5.3218,-5.3235,-5.324,-5.3316,-5.3349,-5.3378,-5.2993,-5.2992,-5.299,0,0,-5.2858,-5.287,-5.2977,-5.2994,-5.3018,-5.2998,-5.3024,-5.3031,-5.3027,-5.3136,-5.3062,-5.3124,-5.3229,-5.3249,-5.3272,-5.3499,-5.3439,-5.3518,-5.3652,-5.3732,-5.3759,-5.3783,-5.3863,-5.3893,-5.3536,-5.3536,-5.3536,0,-5.2979,-5.3086,-5.3038,-5.3126,-5.3156,-5.3068,-5.3175,-5.3194,-5.3235,-5.3257,-5.3197,-5.3327,-5.3336,-5.3475,-5.3531,-5.3553,-5.358,-5.3516,-5.3759,-5.3782,-5.3804,-5.388,-5.391,-5.3545,-5.3544,-5.3543,-5.3543,0,-5.3233,-5.3309,-5.3392,-5.3434,-5.3473,-5.357,-5.3536,-5.3582,-5.3543,-5.353,-5.3642,-5.365,-5.3705,-5.3735,-5.3698,-5.3869,-5.3835,-5.3769,-5.3661,-5.3847,-5.3918,-5.3946,-5.3559,-5.3556,-5.3553,-5.355,0,0,-5.3541,-5.3555,-5.3587,-5.3604,-5.3624,-5.3682,-5.3775,-5.3828,-5.3869,-5.39,-5.3976,-5.4067,-5.4005,-5.4032,-5.3996,-5.4067,-5.4245,-5.3991,-5.3991,-5.4037,-5.4434,-5.4484,-5.4518,-5.4206,-5.4211,-5.4216,-5.4432,0,-5.3756,-5.3916,-5.3875,-5.4034,-5.4103,-5.4021,-5.4102,-5.4123,-5.4113,-5.417,-5.4158,-5.4224,-5.4137,-5.4153,-5.4219,-5.421,-5.4324,-5.4194,-5.4276,-5.4279,-5.4272,-5.4555,-5.4608,-5.4811,-5.4459,-5.4464,-5.4467,0,-5.4028,-5.407,-5.4236,-5.4244,-5.4272,-5.4346,-5.4391,-5.4447,-5.4469,-5.4457,-5.4488,-5.4438,-5.4529,-5.4422,-5.4547,-5.4459,-5.4491,-5.4491,-5.4498,-5.4503,-5.4384,-5.4567,-5.4875,-5.4906,-5.451,-5.4506,-5.4503,0,-5.4236,-5.4334,-5.4445,-5.4463,-5.4476,-5.4529,-5.4537,-5.4553,-5.4588,-5.4628,-5.465,-5.4701,-5.4728,-5.4768,-5.4734,-5.4659,-5.4864,-5.4754,-5.4856,-5.4857,-5.4902,-5.49,-5.5219,-5.4924,-5.4924,-5.4923,-5.4922,0,-5.4479,-5.4584,-5.4538,-5.4607,-5.4722,-5.4674,-5.4789,-5.4787,-5.4802,-5.4869,-5.4801,-5.4865,-5.4815,-5.4875,-5.4848,-5.4956,-5.4969,-5.4961,-5.4953,-5.4967,-5.4968,-5.4986,-5.4971,-5.4931,-5.4929,-5.4928,-5.4926,0,-5.473,-5.4704,-5.482,-5.4823,-5.4826,-5.4911,-5.4913,-5.4976,-5.4961,-5.5046,-5.5064,-5.5041,-5.5107,-5.5077,-5.5147,-5.5129,-5.5267,-5.524,-5.526,-5.5252,-5.5356,-5.5346,-5.5697,-5.574,-5.5419,-5.5422,-5.5425,0,-5.4887,-5.4966,-5.4977,-5.5017,-5.503,-5.5095,-5.513,-5.5086,-5.5126,-5.5157,-5.5217,-5.5277,-5.5324,-5.5434,-5.5423,-5.5476,-5.545,-5.5569,-5.5457,-5.5469,-5.5451,-5.5446,-5.5454,-5.5591,-5.5595,-5.5598,-5.5601,0,-5.5168,-5.5151,-5.5205,-5.5255,-5.5299,-5.5336,-5.5367,-5.5403,-5.536,-5.5408,-5.5476,-5.5512,-5.5583,-5.5645,-5.5691,-5.5698,-5.5643,-5.5636,-5.5662,-5.5677,-5.5685,-5.5682,-5.532,-5.5628,-5.5625,-5.5623,-5.5622,-5.5621,-5.5376,-5.5442,-5.546,-5.5522,-5.5541,-5.5572,-5.5631,-5.5624,-5.568,-5.5735,-5.5705,-5.5784,-5.5804,-5.5861,-5.5876,-5.5937,-5.5889,-5.5928,-5.5937,-5.5947,-5.5961,-5.5677,-5.5945,-5.5944,-5.5944,-5.5943,-5.5942,0,-5.5653,-5.5661,-5.5718,-5.5764,-5.5813,-5.5757,-5.5788,-5.5833,-5.5903,-5.5926,-5.5973,-5.6051,-5.611,-5.6104,-5.6158,-5.6208,-5.6184,-5.6224,-5.6219,-5.6222,-5.6,-5.5972,-5.6243,-5.6243,-5.6242,-5.6242,-5.6242,-5.6242,-5.5803,-5.5911,-5.5897,-5.6013,-5.602,-5.6097,-5.612,-5.6147,-5.6165,-5.6255,-5.6304,-5.63,-5.6312,-5.6366,-5.6418,-5.6415,-5.6438,-5.6487,-5.6475,-5.6267,-5.6238,-5.6209,-5.6182,-5.6493,-5.6493,-5.6691,-5.6693,-5.6694]},{"header":{"parameterUnit":"m.s-1","parameterCategory":1,"la1":30.2991,"la2":30.254,"lo1":-89.0895,"lo2":-89.0444,"dy":0.0017,"dx":0.0017,"nx":28,"ny":28,"refTime":"2025-09-07T21:00:00:Z","depth":0,"parameterNumber":3,"parameterNumberName":"V-component_of_WINDS"},"data":[0,0,0,0,0,0,0,0,0,0,0,0,0,0,0,0,0,0,0,0,0,0,0,0,0,0,0,0,0,0,0,0,0,0,0,0,0,0,0,0,0,0,0,0,0,0,0,0,0,0,0,0,0,0,0,0,0,0,-2.5786,-2.5786,0,-2.5798,-2.5798,-2.5798,-2.5781,-2.578,-2.578,-2.5779,-2.5791,-2.5792,-2.5793,0,0,0,0,0,0,0,0,0,0,0,0,0,-2.5744,-2.5745,-2.5786,-2.5786,-2.5786,-2.5798,-2.5798,-2.5798,-2.5781,-2.578,-2.5779,-2.5779,-2.5791,-2.5792,-2.5793,0,0,0,0,0,0,0,0,0,0,0,0,0,-2.576,-2.5746,-2.5786,-2.5779,-2.5778,-2.5798,-2.5798,-2.5798,-2.5781,-2.578,-2.5779,-2.5778,-2.5791,-2.5792,-2.5793,-2.582,0,0,-2.5797,-2.5798,0,0,0,0,0,0,0,0,-2.5759,-2.5762,-2.578,-2.5779,-2.5779,-2.5787,-2.5788,-2.5806,-2.5781,-2.578,-2.5779,-2.5778,-2.5791,-2.5792,-2.5796,-2.5821,-2.5821,-2.5798,-2.5798,-2.5799,-2.5799,0,0,0,0,0,0,0,-2.5758,-2.5761,-2.5791,-2.578,-2.5779,-2.5774,-2.5775,-2.5791,-2.579,-2.578,-2.5779,-2.5781,-2.579,-2.5795,-2.5796,-2.5822,-2.5798,-2.5799,-2.58,-2.58,-2.5866,-2.5867,0,0,0,0,0,0,-2.5758,-2.576,-2.579,-2.5791,-2.5767,-2.5776,-2.5777,-2.5785,-2.579,-2.579,-2.5781,-2.578,-2.5793,-2.5795,-2.5797,-2.5827,-2.5799,-2.58,-2.5801,-2.5865,-2.5866,-2.5867,0,0,0,0,0,0,-2.5757,-2.5761,-2.579,-2.5775,-2.5778,-2.5777,-2.5787,-2.5786,-2.5791,-2.5791,-2.5791,-2.5787,-2.5792,-2.5795,-2.5814,-2.5827,-2.5801,-2.5802,-2.5864,-2.5865,-2.5867,-2.5888,0,0,0,0,0,0,-2.5756,-2.5761,-2.5772,-2.5776,-2.5779,-2.5807,-2.5788,-2.5787,-2.5793,-2.5791,-2.5796,-2.5796,-2.5792,-2.5812,-2.5815,-2.5828,-2.5803,-2.5863,-2.5865,-2.5866,-2.5886,-2.589,-2.5893,0,0,0,0,0,-2.5755,-2.5778,-2.5773,-2.5776,-2.5793,-2.5808,-2.581,-2.5806,-2.5794,-2.5805,-2.5804,-2.5796,-2.5825,-2.5814,-2.5818,-2.5831,-2.5862,-2.5864,-2.5866,-2.5885,-2.5889,-2.5893,0,0,0,0,0,0,-2.5776,-2.5778,-2.5772,-2.5798,-2.5803,-2.5805,-2.5818,-2.5811,-2.582,-2.5817,-2.5811,-2.5812,-2.5832,-2.5834,-2.5821,-2.5856,-2.5842,-2.5845,-2.5854,-2.5859,-2.5862,-2.5861,-2.5804,0,0,0,0,0,-2.5784,-2.5796,-2.5797,-2.5819,-2.5822,-2.582,-2.5826,-2.5822,-2.5827,-2.5829,-2.5831,-2.5836,-2.5845,-2.5852,-2.5862,-2.5887,-2.5886,-2.5897,-2.5901,-2.5904,-2.5906,-2.5917,-2.5921,-2.5874,-2.5874,-2.5874,0,0,-2.58,-2.5803,-2.5811,-2.5824,-2.5827,-2.5839,-2.5822,-2.5836,-2.5845,-2.5831,-2.5849,-2.585,-2.5855,-2.5876,-2.5886,-2.5878,-2.5919,-2.5907,-2.5909,-2.591,-2.5919,-2.5924,-2.5928,-2.5876,-2.5875,-2.5875,0,0,-2.5835,-2.5839,-2.5856,-2.586,-2.5865,-2.5863,-2.5867,-2.587,-2.587,-2.5887,-2.5877,-2.5887,-2.5905,-2.5908,-2.5912,-2.5945,-2.5937,-2.5949,-2.5967,-2.5977,-2.5981,-2.5984,-2.5994,-2.5998,-2.5951,-2.5951,-2.5951,0,-2.5854,-2.5872,-2.5866,-2.588,-2.5885,-2.5873,-2.589,-2.5893,-2.5902,-2.5905,-2.5897,-2.5917,-2.592,-2.5941,-2.5948,-2.5953,-2.5956,-2.5948,-2.5981,-2.5984,-2.5987,-2.5997,-2.6001,-2.5953,-2.5952,-2.5952,-2.5952,0,-2.5894,-2.5907,-2.592,-2.5927,-2.5934,-2.5949,-2.5945,-2.5952,-2.5946,-2.5945,-2.5961,-2.5964,-2.5972,-2.5977,-2.5973,-2.5996,-2.5991,-2.5982,-2.5967,-2.5993,-2.6002,-2.6005,-2.5954,-2.5954,-2.5954,-2.5953,0,0,-2.5944,-2.5946,-2.5951,-2.5953,-2.5956,-2.5966,-2.598,-2.5988,-2.5993,-2.5998,-2.6009,-2.6023,-2.6014,-2.6019,-2.6014,-2.6023,-2.6047,-2.6013,-2.6013,-2.6018,-2.6071,-2.6077,-2.6081,-2.6041,-2.6042,-2.6043,-2.607,0,-2.5977,-2.6001,-2.5995,-2.6018,-2.6029,-2.6016,-2.6028,-2.6031,-2.6029,-2.6037,-2.6035,-2.6045,-2.6033,-2.6035,-2.6044,-2.6042,-2.6057,-2.604,-2.605,-2.605,-2.6048,-2.6086,-2.6093,-2.6119,-2.6073,-2.6074,-2.6074,0,-2.6019,-2.6025,-2.6049,-2.6049,-2.6053,-2.6064,-2.6069,-2.6077,-2.608,-2.6077,-2.6081,-2.6074,-2.6086,-2.6072,-2.6088,-2.6076,-2.608,-2.6079,-2.608,-2.608,-2.6063,-2.6085,-2.6127,-2.613,-2.608,-2.608,-2.6079,0,-2.605,-2.6065,-2.608,-2.6082,-2.6083,-2.609,-2.6091,-2.6092,-2.6097,-2.6101,-2.6104,-2.611,-2.6113,-2.6118,-2.6112,-2.6102,-2.6128,-2.6113,-2.6126,-2.6126,-2.6131,-2.6131,-2.6172,-2.6136,-2.6135,-2.6135,-2.6135,0,-2.6087,-2.6102,-2.6094,-2.6103,-2.6119,-2.6111,-2.6127,-2.6126,-2.6126,-2.6135,-2.6125,-2.6133,-2.6125,-2.6132,-2.6127,-2.614,-2.6142,-2.614,-2.6138,-2.614,-2.614,-2.6141,-2.6139,-2.6136,-2.6136,-2.6136,-2.6136,0,-2.6125,-2.612,-2.6136,-2.6134,-2.6134,-2.6145,-2.6144,-2.6152,-2.6149,-2.6159,-2.6161,-2.6156,-2.6164,-2.6158,-2.6166,-2.6163,-2.6179,-2.6175,-2.6178,-2.6176,-2.6188,-2.6186,-2.6231,-2.6236,-2.6197,-2.6198,-2.6198,0,-2.6148,-2.6159,-2.6158,-2.6163,-2.6163,-2.6171,-2.6175,-2.6167,-2.6172,-2.6174,-2.6181,-2.6187,-2.6192,-2.6204,-2.6201,-2.6206,-2.6202,-2.6217,-2.6202,-2.6203,-2.62,-2.6199,-2.6199,-2.6219,-2.622,-2.622,-2.6221,0,-2.6189,-2.6186,-2.6192,-2.6196,-2.6201,-2.6204,-2.6207,-2.6211,-2.6203,-2.6208,-2.6215,-2.6218,-2.6225,-2.6231,-2.6234,-2.6234,-2.6226,-2.6225,-2.6228,-2.6229,-2.623,-2.6228,-2.6184,-2.6224,-2.6224,-2.6223,-2.6223,-2.6223,-2.6219,-2.6227,-2.6227,-2.6233,-2.6234,-2.6236,-2.6243,-2.624,-2.6245,-2.625,-2.6245,-2.6253,-2.6253,-2.6257,-2.6257,-2.6263,-2.6256,-2.6261,-2.6262,-2.6263,-2.6263,-2.623,-2.6264,-2.6263,-2.6263,-2.6263,-2.6263,0,-2.6258,-2.6257,-2.6263,-2.6266,-2.627,-2.6261,-2.6263,-2.6267,-2.6274,-2.6275,-2.6279,-2.6286,-2.6291,-2.6287,-2.6291,-2.6296,-2.6292,-2.6297,-2.6296,-2.6296,-2.627,-2.6266,-2.63,-2.63,-2.63,-2.63,-2.63,-2.63,-2.6279,-2.6291,-2.6287,-2.6299,-2.6298,-2.6305,-2.6306,-2.6307,-2.6308,-2.6315,-2.6319,-2.6317,-2.6315,-2.6319,-2.6322,-2.6321,-2.6322,-2.6329,-2.6326,-2.6302,-2.6298,-2.6294,-2.6291,-2.6329,-2.6329,-2.6351,-2.6351,-2.6351]}]]